Starlink 32599

operational
NORAD ID: 62048 Int'l Des: 2024-216 Owner: SPXS Country: US Constellation: starlink
LEOCIRCULAR

关于 Starlink 32599

正在加载描述...

实时位置

正在加载3D地球...

即将过境

高度历史

Altitude vs Time

uPlot chart will show altitude changes over time

两行轨道根数

1 62048U 24216S 25305.93989919 .00025765 00000-0 94235-3 0 9998
2 62048 42.9998 265.0807 0000694 278.4083 81.6689 15.27586125 54258
Epoch: Nov 1, 2025 • Age: 41 hours

当前状态

高度 483.8 km
速度 7.63 km/s
星下点 31.55°N, 19.57°E
发射日期 Nov 21, 2024
运行时间 0.9 years
类型 internet

技术详情

分类 Payload
质量 730.00 kg
干质量 700.00 kg
总质量 730.00 kg
长度 0.30 m
直径 4.10 m
跨度 29.00 m
形状 Box + pan
制造商 SPXS
平台类型 Starlink V2M
阶段状态 In Orbit
所有者/国家 SPXS/US

大型星座

Loading constellations...